Tracking 28793 objects as of 20-Apr-2024
HD Live streaming from Space Station
objects crossing your sky now

ANIK E2

Track ANIK E2 now!
ANIK E2 is classified as:


NORAD ID: 21222
Int'l Code: 1991-026A
Perigee: 36,087.2 km
Apogee: 36,147.1 km
Inclination: 13.5 °
Period: 1,452.7 minutes
Semi major axis: 42488 km
RCS: 12.1056 m2 (large)
Launch date: April 4, 1991
Source: Canada (CA)
Launch site: FRENCH GUIANA (FRGUI)

Inclined orbit; Anik is Inuit for "Little Brother"; 24 C-band, 16 Ku-band transponders.
Your satellite tracking list
Your tracking list is empty




NASA's NSSDC Master Catalog

Two Line Element Set (TLE):
1 21222U 91026A   24111.12202468 -.00000233  00000-0  00000-0 0  9990
2 21222  13.4540  17.9716 0007047  23.8478 161.4778  0.99129069109255
Source of the keplerian elements: AFSPC